Powrót do katalogu

COSMOS 1275 DEB

LostPO
NORAD 42196·DEBRIS·🇷🇺 Russia

Wystrzelony Jun 4, 1981 z Plesetsk Cosmodrome

Loading…

Następne Przeloty (najbliższe 24 godziny)

TLE

NieaktualneSource: Space-Track

Epoka: Aug 26, 2024, 02:46 UTC

1 42196U 81053TL  24239.11572336  .00003563  00000-0  36623-2 0  9996
2 42196  82.7982  20.4844 0119216 196.9574 162.7583 13.72879495538028

Śledź COSMOS 1275 DEB w czasie rzeczywistym z AllMySat

Download on the App Store